Location: Champignolles
(47.0543°N, 4.5663°E)
Time: 15:51:14
(UTC+00:00)

SL-16 R/B - Pass Details

Date: 30 November 2020
Orbit: 841 x 849 km, 71.0° (Epoch: 27 January)

Event Time Altitude Azimuth Distance (km) Brightness Sun altitude
Rises 18:49:46 0° 255° (WSW) 3,392 6.5 -29.1°
Reaches altitude 10° 18:52:55 10° 272° (W) 2,461 5.5 -29.6°
Maximum altitude 18:56:55 19° 318° (NW) 1,883 4.4 -30.3°
Enters shadow 19:00:00 13° 356° (N) 2,247 4.4 -30.8°
